Location: Les Salelles
(44.4192°N, 4.1044°E)
Time: 19:15:23
(UTC+00:00)

CZ-3B R/B - Pass Details

Date: 20 January 2021
Orbit: 278 x 17416 km, 54.8° (Epoch: 28 February)

Event Time Altitude Azimuth Distance (km) Brightness Sun altitude
Rises 17:08:01 0° 315° (NW) 1,950 5.0 -5.9°
Reaches altitude 10° 17:09:49 10° 342° (NNW) 1,289 3.7 -6.2°
Maximum altitude 17:11:36 17° 30° (NNE) 1,200 3.1 -6.5°
Drops below altitude 10° 17:14:35 10° 75° (ENE) 2,262 4.3 -7.0°
Enters shadow 17:15:28 - 80° (E) 2,667 4.6 -7.1°
